Погода в Бэйбэе

Китай     29°33′03″N   106°31′09″E
темп.,
°C
ветер,
м/с
пор.,
м/с
влажн.,
%
обл.,
%
осадки,
мм/ч
давл.,
гПа
погр.,
м
25 января, пн
пн2523:00+10ссв3580100 0.3 1016440
02:00+10с2486100 1.3 1018385
05:00+10зсз1189100 1.6 1020212
08:00+10зюз1290100 2.9 1022222
11:00+10зсз2579100 0.6 1025628
14:00+11з237499 0.7 1022552
17:00+12з126293 0.0 1021883
20:00+10ююз248173 0.1 1023264
26 января, вт
вт2623:00+9юз11830 0.0 102443
02:00+9ю01840 0.0 102322
05:00+8св11875 0.0 102223
08:00+8св118922 0.0 102254
11:00+11св127188 0.0 1024487
14:00+13в115692 0.0 1021903
17:00+12юв2160100 0.0 1018708
20:00+11вюв1171100 0.1 1019298
27 января, ср
ср2723:00+11всв127597 0.0 1019316
02:00+10всв128299 0.2 1018273
05:00+10в1185100 0.4 1017237
08:00+10юз0185100 0.6 1019239
11:00+12з236861 0.1 1022774
14:00+14сз345559 0.1 10211221
17:00+14сз355494 0.1 10211189
20:00+13ссз245974 0.1 1024265
28 января, чт
чт2823:00+11всв01700 0.0 102625
02:00+10св13841 0.0 1027149
05:00+9св238533 0.0 1026228
08:00+9св238567 0.0 1028253
11:00+12всв117046 0.0 1031556
14:00+15юв225263 0.1 10291240
17:00+11юв3662100 0.3 1027468
20:00+11вюв2564100 0.4 1029445
29 января, пт
пт2923:00+10юв2569100 0.0 1029348
02:00+10в136998 0.0 1028290
05:00+9всв127485 0.0 1026188
08:00+9всв117388 0.0 1026158
11:00+11в124392 0.0 1027638
14:00+14юв232984 0.0 10241409
17:00+13ююв334588 0.0 10211139
20:00+12юв135294 0.0 1022552